GW4126 Weather Reports


time (UTC)temp
C
wind
direction
speed
KPH
gust
KPH
rain 1hr
cm
rain 24hr
cm
rain mn
cm
humidity
%
barometer
mb
20260506233531 11 288 9.7 16.1 0.00 0.00 0.00 65 1023.9
20260506233039 11 279 9.7 17.7 0.00 0.00 0.00 63 1023.8
20260506232529 11 279 11.3 17.7 0.00 0.00 0.00 63 1023.8
20260506232029 11 267 11.3 16.1 0.00 0.00 0.00 63 1023.7
20260506231602 11 289 8.0 19.3 0.00 0.00 0.00 67 1023.7
20260506231030 11 287 11.3 19.3 0.00 0.00 0.00 66 1023.7
20260506230529 11 259 12.9 19.3 0.00 0.00 0.00 65 1023.7
20260506230103 11 262 8.0 16.1 0.00 0.00 0.00 65 1023.6
20260506225529 11 290 9.7 19.3 0.00 0.00 0.00 65 1023.7
20260506225030 11 274 9.7 19.3 0.00 0.00 0.00 65 1023.6
20260506224543 11 288 11.3 17.7 0.00 0.00 0.00 64 1023.7
20260506224029 11 259 11.3 17.7 0.00 0.00 0.00 65 1023.6
20260506223529 11 259 9.7 19.3 0.00 0.00 0.00 65 1023.7
20260506223039 11 275 14.5 19.3 0.00 0.00 0.00 63 1023.6
20260506222530 11 277 12.9 19.3 0.00 0.00 0.00 63 1023.5
20260506222030 11 260 12.9 17.7 0.00 0.00 0.00 63 1023.6
20260506221605 11 280 9.7 17.7 0.00 0.00 0.00 65 1023.6
20260506221030 11 322 12.9 17.7 0.00 0.00 0.00 63 1023.7
20260506220529 11 284 11.3 16.1 0.00 0.00 0.00 63 1023.5
20260506220050 11 277 11.3 16.1 0.00 0.00 0.00 63 1023.6
20260506215531 11 285 12.9 16.1 0.00 0.00 0.00 62 1023.5
20260506215030 11 294 11.3 16.1 0.00 0.00 0.00 63 1023.5
20260506214549 11 265 9.7 16.1 0.00 0.00 0.00 63 1023.5
20260506214029 11 283 12.9 16.1 0.00 0.00 0.00 64 1023.6
20260506213530 11 303 11.3 17.7 0.00 0.00 0.00 63 1023.6
20260506213102 11 272 11.3 17.7 0.00 0.00 0.00 62 1023.6
20260506212530 11 260 12.9 19.3 0.00 0.00 0.00 62 1023.5
20260506212030 11 302 12.9 19.3 0.00 0.00 0.00 62 1023.5
20260506211542 11 278 14.5 19.3 0.00 0.00 0.00 61 1023.6
20260506211030 11 301 11.3 17.7 0.00 0.00 0.00 59 1023.5
20260506210530 12 286 11.3 17.7 0.00 0.00 0.00 61 1023.4
20260506210055 11 313 11.3 17.7 0.00 0.00 0.00 59 1023.3
20260506205530 11 261 11.3 19.3 0.00 0.00 0.00 60 1023.2
20260506205029 11 281 9.7 19.3 0.00 0.00 0.00 59 1023.2
20260506204538 11 279 9.7 16.1 0.00 0.00 0.00 59 1023.2
20260506204030 11 346 9.7 17.7 0.00 0.00 0.00 58 1023.0
20260506203529 11 270 9.7 17.7 0.00 0.00 0.00 63 1023.0
20260506203037 11 261 8.0 17.7 0.00 0.00 0.00 61 1023.1
20260506202529 11 235 9.7 17.7 0.00 0.00 0.00 64 1023.0
20260506202032 11 267 12.9 17.7 0.00 0.00 0.00 62 1022.9
20260506201548 11 263 9.7 17.7 0.00 0.00 0.00 64 1022.9
20260506201030 11 296 12.9 17.7 0.00 0.00 0.00 61 1022.8
20260506200530 11 245 4.8 17.7 0.00 0.00 0.00 62 1022.8
20260506200043 11 260 8.0 17.7 0.00 0.00 0.00 60 1022.9
20260506195529 11 301 12.9 19.3 0.00 0.00 0.00 63 1022.9
20260506195030 11 292 12.9 19.3 0.00 0.00 0.00 63 1022.9
20260506194544 11 298 12.9 19.3 0.00 0.00 0.00 62 1022.9
20260506194032 11 267 11.3 19.3 0.00 0.00 0.00 62 1022.8
20260506193529 11 293 14.5 19.3 0.00 0.00 0.00 64 1022.8
20260506193041 11 295 12.9 20.9 0.00 0.00 0.00 64 1022.7
20260506192532 11 298 9.7 20.9 0.00 0.00 0.00 65 1022.7
20260506192032 10 316 9.7 19.3 0.00 0.00 0.00 66 1022.7
20260506191548 10 290 11.3 19.3 0.00 0.00 0.00 65 1022.7
20260506191030 11 282 12.9 17.7 0.00 0.00 0.00 65 1022.7
20260506190529 11 311 11.3 17.7 0.00 0.00 0.00 65 1022.7
20260506190044 11 327 12.9 17.7 0.00 0.00 0.00 65 1022.5
20260506185531 10 333 9.7 19.3 0.00 0.00 0.00 64 1022.5
20260506185029 10 347 12.9 19.3 0.00 0.00 0.00 65 1022.5
20260506184556 10 355 14.5 19.3 0.00 0.00 0.00 66 1022.5
20260506184030 10 335 8.0 17.7 0.00 0.00 0.00 65 1022.5
20260506183530 10 334 8.0 17.7 0.00 0.00 0.00 65 1022.5
20260506183048 10 330 9.7 17.7 0.00 0.00 0.00 66 1022.4
20260506182530 10 344 9.7 17.7 0.00 0.00 0.00 66 1022.4
20260506182033 10 345 9.7 17.7 0.00 0.00 0.00 65 1022.4
20260506181546 10 310 12.9 19.3 0.00 0.00 0.00 66 1022.4
20260506181030 10 340 11.3 19.3 0.00 0.00 0.00 67 1022.4
20260506180531 9 317 12.9 19.3 0.00 0.00 0.00 68 1022.5
20260506180047 9 319 14.5 19.3 0.00 0.00 0.00 68 1022.5
20260506175530 9 320 12.9 20.9 0.00 0.00 0.00 67 1022.5
20260506175029 9 296 12.9 20.9 0.00 0.00 0.00 67 1022.4
20260506174540 9 326 9.7 16.1 0.00 0.00 0.00 67 1022.4
20260506174029 9 304 6.4 17.7 0.00 0.00 0.00 68 1022.5
20260506173530 9 317 11.3 19.3 0.00 0.00 0.00 67 1022.5
20260506173044 10 346 11.3 19.3 0.00 0.00 0.00 67 1022.4
20260506172529 10 329 11.3 20.9 0.00 0.00 0.00 69 1022.5
20260506172033 9 309 14.5 20.9 0.00 0.00 0.00 69 1022.6
20260506171555 10 319 12.9 20.9 0.00 0.00 0.00 68 1022.5
20260506171029 9 299 11.3 17.7 0.00 0.00 0.00 68 1022.5
20260506170532 8 321 9.7 19.3 0.00 0.00 0.00 70 1022.5
20260506170047 8 330 8.0 19.3 0.00 0.00 0.00 70 1022.4
20260506165534 8 321 14.5 19.3 0.00 0.00 0.00 71 1022.3
20260506165030 8 323 14.5 17.7 0.00 0.00 0.00 72 1022.5
20260506164544 8 319 11.3 20.9 0.00 0.00 0.00 72 1022.5
20260506164029 8 333 14.5 19.3 0.00 0.00 0.00 72 1022.4
20260506163529 8 316 8.0 16.1 0.00 0.00 0.00 74 1022.4
20260506163042 8 304 11.3 16.1 0.00 0.00 0.00 74 1022.4
20260506162530 8 290 8.0 17.7 0.00 0.00 0.00 74 1022.3
20260506162030 8 340 11.3 17.7 0.00 0.00 0.00 74 1022.2
20260506161543 8 331 8.0 19.3 0.00 0.00 0.00 74 1022.3
20260506161032 8 318 11.3 19.3 0.00 0.00 0.00 75 1022.2
20260506160533 8 318 11.3 17.7 0.00 0.00 0.00 75 1022.2
20260506160045 8 306 8.0 14.5 0.00 0.00 0.00 75 1022.2
20260506155529 8 324 8.0 16.1 0.00 0.00 0.00 76 1022.1
20260506155030 8 288 9.7 17.7 0.00 0.00 0.00 76 1022.0
20260506154546 8 304 9.7 19.3 0.00 0.00 0.00 75 1022.0
20260506154031 7 313 12.9 20.9 0.00 0.00 0.00 75 1021.9
20260506153529 7 321 14.5 20.9 0.00 0.00 0.00 75 1021.9
20260506153040 7 289 12.9 20.9 0.00 0.00 0.00 75 1021.9
20260506152531 7 307 12.9 20.9 0.00 0.00 0.00 75 1021.9
20260506152030 7 288 14.5 22.5 0.00 0.00 0.00 75 1021.8
20260506151542 7 276 16.1 22.5 0.00 0.00 0.00 75 1021.8
20260506151029 7 297 16.1 22.5 0.00 0.00 0.00 75 1021.8
20260506150530 7 291 12.9 24.1 0.00 0.00 0.00 75 1021.8
20260506150039 7 304 16.1 24.1 0.00 0.00 0.00 76 1021.8
20260506145531 7 310 11.3 19.3 0.00 0.00 0.00 76 1021.7
20260506145030 7 313 9.7 19.3 0.00 0.00 0.00 76 1021.7
20260506144558 7 307 11.3 17.7 0.00 0.00 0.00 76 1021.6
20260506144032 7 300 9.7 17.7 0.00 0.00 0.00 76 1021.5
20260506143531 7 303 14.5 20.9 0.00 0.00 0.00 76 1021.5
20260506143045 7 309 12.9 20.9 0.00 0.00 0.00 76 1021.4
20260506142530 7 319 12.9 20.9 0.00 0.00 0.00 76 1021.5
20260506142029 7 314 14.5 20.9 0.00 0.00 0.00 76 1021.4
20260506141538 7 308 14.5 20.9 0.00 0.00 0.00 75 1021.4
20260506141030 7 310 12.9 22.5 0.00 0.00 0.00 75 1021.3
20260506140530 7 315 14.5 22.5 0.00 0.00 0.00 75 1021.3
20260506140042 7 311 11.3 17.7 0.00 0.00 0.00 75 1021.3
20260506135533 7 299 9.7 19.3 0.00 0.00 0.00 75 1021.3
20260506135029 7 327 9.7 19.3 0.00 0.00 0.00 75 1021.1
20260506134546 7 309 12.9 19.3 0.00 0.00 0.00 75 1021.1
20260506134031 7 309 11.3 19.3 0.00 0.00 0.00 76 1021.0
20260506133529 7 333 11.3 17.7 0.00 0.00 0.00 76 1021.0
20260506133045 7 315 9.7 20.9 0.00 0.00 0.00 76 1020.9
20260506132534 7 318 8.0 20.9 0.00 0.00 0.00 76 1020.8
20260506132029 7 309 16.1 20.9 0.00 0.00 0.00 76 1020.8
20260506131546 7 309 12.9 20.9 0.00 0.00 0.00 76 1020.7
20260506131031 7 297 11.3 17.7 0.00 0.00 0.00 76 1020.8
20260506130529 7 331 12.9 17.7 0.00 0.00 0.00 76 1020.8
20260506130049 7 339 12.9 20.9 0.00 0.00 0.00 76 1020.8
20260506125529 7 325 14.5 20.9 0.00 0.00 0.00 76 1020.7
20260506125030 7 323 14.5 20.9 0.00 0.00 0.00 77 1020.8
20260506124543 7 323 14.5 20.9 0.00 0.00 0.00 77 1020.8
20260506124033 7 324 14.5 24.1 0.00 0.00 0.00 77 1020.7
20260506123530 8 303 16.1 24.1 0.00 0.00 0.00 77 1020.7
20260506123045 8 309 9.7 17.7 0.00 0.00 0.00 78 1020.8
20260506122530 8 310 9.7 14.5 0.00 0.00 0.00 78 1020.6
20260506122032 8 308 8.0 12.9 0.00 0.00 0.00 78 1020.6
20260506121541 8 321 6.4 12.9 0.00 0.00 0.00 78 1020.6
20260506121029 8 324 6.4 12.9 0.00 0.00 0.00 77 1020.6
20260506120532 8 322 6.4 12.9 0.00 0.00 0.00 77 1020.5
20260506120040 8 303 8.0 16.1 0.00 0.00 0.00 77 1020.4
20260506115530 8 312 6.4 16.1 0.00 0.00 0.00 77 1020.3
20260506115029 8 315 8.0 14.5 0.00 0.00 0.00 77 1020.3
20260506114551 8 300 9.7 14.5 0.00 0.00 0.00 77 1020.3
20260506114029 8 325 6.4 12.9 0.00 0.00 0.00 77 1020.3
20260506113530 8 300 9.7 16.1 0.00 0.00 0.00 77 1020.3
20260506113042 8 325 9.7 16.1 0.00 0.00 0.00 77 1020.2
20260506112531 8 309 9.7 16.1 0.00 0.00 0.00 78 1020.2
20260506112029 8 310 9.7 14.5 0.00 0.00 0.00 77 1020.1
20260506111539 8 303 6.4 17.7 0.00 0.00 0.00 78 1020.1
20260506111029 8 312 8.0 17.7 0.00 0.00 0.00 78 1020.0
20260506110529 8 317 6.4 16.1 0.00 0.00 0.00 78 1020.1
20260506110042 8 316 8.0 12.9 0.00 0.00 0.00 78 1020.1
20260506105531 8 332 4.8 12.9 0.00 0.00 0.00 79 1020.0
20260506105029 8 313 6.4 12.9 0.00 0.00 0.00 79 1020.0
20260506104544 8 323 8.0 11.3 0.00 0.00 0.00 79 1020.0
20260506104029 8 341 6.4 16.1 0.00 0.00 0.00 79 1020.0
20260506103529 8 337 9.7 17.7 0.00 0.00 0.00 78 1019.9
20260506103038 8 325 8.0 17.7 0.00 0.00 0.00 78 1020.0
20260506102529 8 327 12.9 17.7 0.00 0.00 0.00 78 1019.9
20260506102029 7 322 9.7 16.1 0.00 0.00 0.00 79 1020.0
20260506101545 7 317 11.3 16.1 0.00 0.00 0.00 79 1020.0
20260506101030 7 321 11.3 16.1 0.00 0.00 0.00 80 1020.0
20260506100532 7 325 9.7 17.7 0.00 0.00 0.00 81 1020.0
20260506100046 7 306 9.7 17.7 0.00 0.00 0.00 81 1020.1
20260506095530 7 335 8.0 11.3 0.00 0.00 0.00 82 1019.9
20260506095030 7 319 4.8 11.3 0.00 0.00 0.00 82 1020.0
20260506094542 7 322 3.2 8.0 0.00 0.00 0.00 82 1019.9
20260506094029 7 322 3.2 8.0 0.00 0.00 0.00 81 1019.8
20260506093529 7 351 3.2 4.8 0.00 0.00 0.00 81 1019.8
20260506093041 7 351 3.2 4.8 0.00 0.00 0.00 81 1019.7
20260506092533 7 351 3.2 4.8 0.00 0.00 0.00 80 1019.7
20260506092029 7 351 3.2 4.8 0.00 0.00 0.00 80 1019.6
20260506091541 7 351 3.2 8.0 0.00 0.00 0.00 80 1019.6
20260506091031 7 351 3.2 9.7 0.00 0.00 0.00 80 1019.6
20260506090530 7 351 6.4 16.1 0.00 0.00 0.00 80 1019.6
20260506090037 7 334 8.0 17.7 0.00 0.00 0.00 79 1019.5
20260506085530 7 325 8.0 17.7 0.00 0.00 0.00 80 1019.6
20260506085030 7 318 11.3 19.3 0.00 0.00 0.00 79 1019.6
20260506084543 7 355 8.0 19.3 0.00 0.00 0.00 80 1019.6
20260506084030 7 310 12.9 19.3 0.00 0.00 0.00 79 1019.6
20260506083529 7 321 8.0 14.5 0.00 0.00 0.00 79 1019.4
20260506083050 7 336 6.4 14.5 0.00 0.00 0.00 78 1019.5
20260506082529 7 345 8.0 14.5 0.00 0.00 0.00 78 1019.5
20260506082029 7 339 9.7 14.5 0.00 0.00 0.00 78 1019.4
20260506081543 7 333 4.8 14.5 0.00 0.00 0.00 77 1019.4
20260506081030 7 335 4.8 14.5 0.00 0.00 0.00 77 1019.3
20260506080530 7 320 6.4 14.5 0.00 0.00 0.00 77 1019.3
20260506073529 8 336 6.4 14.5 0.00 0.00 0.00 75 1019.1
20260506073049 8 333 6.4 14.5 0.00 0.00 0.00 75 1019.0
20260506072529 8 329 9.7 14.5 0.00 0.00 0.00 75 1019.0
20260506072031 8 342 8.0 14.5 0.00 0.00 0.00 75 1018.9
20260506071552 8 333 8.0 14.5 0.00 0.00 0.00 74 1018.9
20260506071029 8 330 9.7 16.1 0.00 0.00 0.00 74 1018.8
20260506070529 8 327 9.7 16.1 0.00 0.00 0.00 74 1018.8
20260506062029 8 317 16.1 22.5 0.00 0.00 0.00 75 1018.7
20260506061541 8 307 16.1 22.5 0.00 0.00 0.00 75 1018.6
20260506061030 8 320 12.9 22.5 0.00 0.00 0.00 75 1018.7
20260506060530 8 323 16.1 27.4 0.00 0.00 0.00 75 1018.7
20260506051030 8 306 16.1 33.8 0.00 0.00 0.00 73 1018.4
20260506050529 8 330 20.9 33.8 0.00 0.00 0.00 73 1018.3
20260506045029 9 308 20.9 29.0 0.00 0.00 0.00 74 1018.2
20260506044545 9 298 16.1 30.6 0.00 0.00 0.00 74 1018.1
20260506044030 9 320 22.5 30.6 0.00 0.00 0.00 74 1018.1
20260506043529 9 302 17.7 27.4 0.00 0.00 0.00 74 1018.0
20260506043044 9 300 16.1 27.4 0.00 0.00 0.00 74 1018.0
20260506042531 9 311 16.1 25.7 0.00 0.00 0.00 75 1017.8
20260506042031 9 297 17.7 25.7 0.00 0.00 0.00 75 1017.9
20260506041548 9 314 16.1 25.7 0.00 0.00 0.00 75 1017.7
20260506041030 10 294 16.1 25.7 0.00 0.00 0.00 74 1017.6
20260506040530 9 299 14.5 24.1 0.00 0.00 0.00 74 1017.7
20260506040044 9 277 16.1 24.1 0.00 0.00 0.00 74 1017.4
20260506035533 10 284 16.1 25.7 0.00 0.00 0.00 73 1017.4
20260506035030 10 306 16.1 25.7 0.00 0.00 0.00 73 1017.3
20260506034542 10 312 17.7 25.7 0.00 0.00 0.00 72 1017.1
20260506034029 10 268 16.1 25.7 0.00 0.00 0.00 72 1017.0
20260506033529 10 287 12.9 27.4 0.00 0.00 0.00 70 1017.0
20260506033042 10 294 14.5 27.4 0.00 0.00 0.00 71 1016.9
20260506032529 10 281 14.5 27.4 0.00 0.00 0.00 70 1017.0
20260506032031 11 277 16.1 27.4 0.00 0.00 0.00 70 1016.9
20260506031544 11 309 17.7 27.4 0.00 0.00 0.00 70 1016.8
20260506031029 11 288 12.9 27.4 0.00 0.00 0.00 69 1016.9
20260506030532 11 265 9.7 22.5 0.00 0.00 0.00 68 1016.7
20260506030058 11 310 14.5 22.5 0.00 0.00 0.00 68 1016.7
20260506025530 12 281 14.5 22.5 0.00 0.00 0.00 66 1016.7
20260506025033 12 300 16.1 22.5 0.00 0.00 0.00 65 1016.7
20260506024552 12 298 14.5 22.5 0.00 0.00 0.00 65 1016.6
20260506024030 12 309 12.9 22.5 0.00 0.00 0.00 64 1016.6
20260506023530 12 275 16.1 25.7 0.00 0.00 0.00 63 1016.5
20260506023041 12 281 19.3 25.7 0.00 0.00 0.00 62 1016.5
20260506022529 12 280 12.9 24.1 0.00 0.00 0.00 62 1016.4
20260506022029 13 304 12.9 27.4 0.00 0.00 0.00 61 1016.4
20260506021541 13 284 16.1 27.4 0.00 0.00 0.00 59 1016.5
20260506021030 13 294 17.7 25.7 0.00 0.00 0.00 58 1016.4
20260506020534 13 286 16.1 27.4 0.00 0.00 0.00 58 1016.3
20260506020038 13 284 19.3 27.4 0.00 0.00 0.00 57 1016.3
20260506015531 13 276 16.1 27.4 0.00 0.00 0.00 56 1016.3
20260506015029 14 265 16.1 24.1 0.00 0.00 0.00 56 1016.3
20260506014555 14 269 12.9 24.1 0.00 0.00 0.00 56 1016.2
20260506014030 13 265 16.1 27.4 0.00 0.00 0.00 56 1016.0
20260506013530 13 301 19.3 27.4 0.00 0.00 0.00 56 1016.0
20260506013048 14 300 17.7 27.4 0.00 0.00 0.00 55 1015.9
20260506012529 14 274 19.3 25.7 0.00 0.00 0.00 55 1015.8
20260506012030 14 266 17.7 25.7 0.00 0.00 0.00 55 1015.8
20260506011542 14 273 14.5 27.4 0.00 0.00 0.00 57 1015.8
20260506011033 15 265 16.1 29.0 0.00 0.00 0.00 56 1015.9
20260506010531 15 289 19.3 29.0 0.00 0.00 0.00 55 1016.0
20260506010051 15 271 16.1 25.7 0.00 0.00 0.00 56 1016.0
20260506005531 15 296 16.1 27.4 0.00 0.00 0.00 56 1015.9
20260506005029 15 267 17.7 27.4 0.00 0.00 0.00 58 1015.9
20260506004548 15 281 12.9 24.1 0.00 0.00 0.00 57 1015.9
20260506004029 15 298 16.1 24.1 0.00 0.00 0.00 56 1015.9
20260506003529 15 302 12.9 24.1 0.00 0.00 0.00 56 1015.8
20260506003042 15 286 16.1 25.7 0.00 0.00 0.00 54 1015.9
20260506002530 16 272 19.3 25.7 0.00 0.00 0.00 54 1015.9
20260506002029 16 286 14.5 27.4 0.00 0.00 0.00 56 1015.9
20260506001537 16 273 17.7 27.4 0.00 0.00 0.00 54 1015.9
20260506001031 16 254 17.7 27.4 0.00 0.00 0.00 58 1015.9
20260506000531 16 286 19.3 27.4 0.00 0.00 0.00 57 1015.8
20260506000043 16 285 17.7 29.0 0.00 0.00 0.00 57 1015.8
20260505235529 16 308 19.3 37.0 0.00 0.00 0.00 58 1015.9
20260505235030 16 309 19.3 37.0 0.00 0.00 0.00 56 1015.8
20260505234542 16 279 24.1 37.0 0.00 0.00 0.00 56 1015.7
20260505234030 16 241 19.3 27.4 0.00 0.00 0.00 57 1015.7